User: anonymous   Login
Location: Baia de Cri?
(46.1667°N, 22.7167°E)
Time: 06:23:42
(UTC+00:00)
Language:

ACS3 Solar Sail - Orbit

View from above orbital plane
View from above orbital plane
View from above satellite
View from above satellite

Ground track
Ground track

The orbit is defined by the following mean orbital elements,

1 59588U          26104.54937875 +.00000000 +00000-0 +21868-2 0 00006
2 59588  97.1910  37.6042 0072226 359.7596   0.3522 13.91258553    03
Epoch (UTC): 14 April 2026 13:11:06
Eccentricity: 0.0072226
inclination: 97.1910°
perigee height: 871 km
apogee height: 977 km
right ascension of ascending node: 37.6042°
argument of perigee: 359.7596°
revolutions per day: 13.91258553
mean anomaly at epoch: 0.3522°

The dashed part of the orbit path shows where the satellite is in the earth's shadow,  

DLR